Back to catalog

OPS 9346

IDSCS 24

LostMilitaryMEO
NORAD 3289·PAYLOAD·🇺🇸 United States

Launched Jun 13, 1968 from Cape Canaveral Space Force Station

Loading…

Next Passes (next 24 hours)

TLE

StaleSource: Space-Track

Epoch: Jul 23, 2026, 03:30 UTC

1  3289U 68050F   26204.14623148 -.00000115  00000-0  00000+0 0  9991
2  3289   7.1539  52.9632 0046102 141.5698  76.0176  1.07288139 51038

Track OPS 9346 in real time with AllMySat

Download on the App Store